www.pogodaiklimat.ru

Погода и климат >> Архив погоды >> Россия >> Красноярский край >> Сухобузимское


ПОГОДА в Сухобузимском

  • Прогноз погоды в Сухобузимском
  • Монитор погоды в Сухобузимском

АРХИВ ПОГОДЫ в Сухобузимском

Время (UTC), дата Ветер
(напр.,м/с)
 
Видим.   Явления Облачность Т
(С)
Тd
(С)
f
(%)
Тe
(С)
Тes
(С)
Комфортность P
(гПа)
Po
(гПа)
Тmin
(С)
Tmax
(С)
R
(мм)
R24
(мм)
S
(см)
06 17.02 ЮЗ 5
{10}
50 км 9/0
[Ac lent Cs]
-1.8 -9.0 58 -8 -7 1017.3 996.5
09 17.02 Ю 2 50 км 6/0 2000 м
[Ac lent Ci fib]
-0.3 -8.1 56 -3 -3 1015.3 994.7
12 17.02 Ю 1 20 км 9/0 2000 м
[Ac trans]
-2.0 -8.2 63 -4 -4 1014.1 993.4 +0.4
15 17.02 Ю 1 20 км 4/0
[Ci fib]
-9.4 -12.8 76 -12 -12 1013.0 991.7
18 17.02 С 1 20 км 6/0
[Ci fib]
-12.3 -14.6 83 -15 -15 1012.1 990.6
21 17.02 СВ 1 20 км 9/0 2000 м
[Ac trans Ci fib]
-9.1 -12.4 77 -11 -11 1010.7 989.5
00 18.02 СЗ 1 20 км 9/0 2000 м
[Ac trans Ci fib]
-7.7 -11.5 74 -10 -10 1009.9 988.8 -12.8 14
03 18.02 Ю 2 50 км 8/0
[Ci fib]
-0.5 -11.9 42 -3 -2 1009.3 988.8
06 18.02 Ю 4 50 км 9/0
[Cs]
+0.7 -12.3 37 -4 -2 1007.9 987.5
09 18.02 Ю 3 50 км 8/0
[As trans Ci fib]
+0.8 -12.6 36 -3 -2 1007.2 986.8
12 18.02 В 1 20 км 8/0
[As trans]
+0.3 -10.6 44 -1 -1 1006.9 986.5 +1.6
15 18.02 ЮЗ 5 20 км 10/0 2000 м
[Ac As]
+1.1 -9.8 44 -4 -4 1007.2 986.8
18 18.02 Ю 3 20 км 10/10 1000 м
[Sc]
+0.9 -7.4 54 -3 -3 1008.1 987.7
21 18.02 ЮЗ 3 20 км 9/9 1000 м
[Sc]
+0.4 -7.4 56 -4 -4 1009.2 988.7
00 19.02 ЮЗ 2 20 км 10/10 1000 м
[Sc]
-0.5 -7.1 61 -4 -4 1010.7 990.2 -1.8 11
03 19.02 ЮЗ 2 50 км 10/8 600 м
[Cb cap Ac As]
+0.2 -5.9 64 -3 -3 1012.6 992.1
06 19.02 ЮЗ 5
{10}
50 км 9/9 600 м
[Cb cap]
+1.2 -3.5 71 -4 -4 1014.7 994.2
09 19.02 ЮЗ 4
{13}
50 км 8/5 1000 м
[Cu hum Ci fib]
+2.2 -5.9 55 -2 -2 1016.0 995.6
12 19.02 ЮЗ 3 20 км 8/0
[Ci fib]
-1.3 -9.2 55 -6 -6 1018.8 998.0 +2.5
15 19.02 ЮЗ 1 20 км 4/0
[Ci fib]
-5.9 -11.4 65 -8 -8 1020.3 999.1
18 19.02 штиль 0 20 км 10/0
[Cs]
-8.5 -12.2 75 -9 -9 1020.8 999.4
21 19.02 штиль 0 20 км 10/0
[Cs]
-8.7 -12.2 76 -9 -9 1021.5 1000.1
00 20.02 Ю 1 20 км 9/0
[Cs]
-7.4 -11.2 74 -10 -10 1021.7 1000.4 -9.3 11
03 20.02 штиль 0 50 км 9/0 2000 м
[Ac trans Ci fib]
-1.8 -8.7 59 -2 -1 1022.0 1001.1
06 20.02 Ю 1 50 км 9/0
[Cs]
+2.8 -6.6 50 +2 +5 1021.5 1001.0
09 20.02 Ю 4 50 км 8/0
[Cs]
+3.6 -5.9 50 -0 0 1021.1 1000.7
12 20.02 Ю 3 20 км 9/0 2000 м
[Ac As Ci fib]
+1.4 -6.1 57 -2 -2 1021.5 1000.9 +3.6
15 20.02 В 1 20 км 4/0
[Ci fib]
-4.9 -8.2 78 -7 -7 1022.0 1000.9
18 20.02 З 1 20 км 9/0
[Cs]
-8.2 -10.6 83 -11 -11 1021.5 1000.2
21 20.02 штиль 0 20 км ясно -10.8 -12.6 87 -11 -11 1020.9 999.3
00 21.02 З 1 20 км ясно -13.3 -15.0 87 -16 -16 1020.9 999.2 -13.3 11
03 21.02 штиль 0 50 км 4/0
[Ci fib]
-10.7 -13.2 82 -11 -9 1021.0 999.4 -13.6
06 21.02 штиль 0 50 км 8/0
[Cs]
+0.1 -7.5 57 -0 +4 1019.4 998.7
09 21.02 В 1 50 км 6/0
[Ci fib]
+3.0 -6.4 50 +2 +3 1018.9 998.5
12 21.02 ЮЗ 1 20 км 10/0
[As op]
-2.1 -6.7 71 -4 -4 1021.0 1000.1 +4.0
15 21.02 ЮЗ 4 4000 м слаб. ливневой снег 10/8 600 м
[Cb cap Ac As]
+0.4 -0.7 92 -5 -5 1023.3 1002.7
18 21.02 ЮЗ 3 20 км 10/0 2000 м
[Ac As]
-0.7 -2.9 85 -6 -6 1025.8 1004.9
21 21.02 ЮЗ 2 20 км 9/0
[Cs]
-1.4 -3.4 86 -5 -5 1027.6 1006.7
00 22.02 ЮЗ 6
{13}
20 км позёмок 6/6 600 м
[Cb cap]
-3.1 -7.9 69 -10 -10 1030.0 1008.9 -3.1 0.0 11
03 22.02 ЮЗ 6
{12}
50 км {метель} 8/0 2000 м
[Ac lent Ci fib]
-4.4 -10.2 64 -12 -11 1033.0 1011.7 -5.0
06 22.02 ЮЗ 6
{10}
50 км 3/1 1000 м
[Cu hum Ci fib]
-3.0 -10.8 55 -10 -9 1034.0 1012.8
09 22.02 ЮЗ 6
{10}
50 км 8/1 1000 м
[Cu hum Ci fib]
-2.4 -10.9 52 -9 -9 1034.3 1013.1
12 22.02 ЮЗ 2
{10}
20 км 8/0
[Ci fib]
-7.8 -12.2 71 -12 -12 1034.9 1013.3 -2.4
15 22.02 ЮЗ 3 20 км 10/0
[As op]
-5.4 -12.0 60 -11 -11 1033.9 1012.5
18 22.02 ЮЗ 3 20 км 10/0
[As op]
-4.3 -10.5 62 -9 -9 1033.2 1011.9
21 22.02 ЮЗ 4 20 км 10/6 600 м
[Cb cap As op]
-4.7 -9.1 71 -11 -11 1032.7 1011.4
00 23.02 ЮЗ 3 4000 м слаб. ливневой снег 10/8 600 м
[Cb cap As op]
-5.6 -8.2 82 -11 -11 1032.9 1011.5 -8.0 0.0 11
03 23.02 ЮЗ 2 4000 м слаб. ливневой снег 10/8 600 м
[Cb cap As op]
-5.0 -8.6 76 -9 -9 1033.3 1011.9
06 23.02 ЮЗ 4 50 км {ливн. осадки} 8/0
[Ac trans Ci fib]
-2.8 -9.6 59 -8 -7 1032.5 1011.4
09 23.02 ЮЗ 5 50 км 10/0
[Ac As]
-0.9 -8.1 58 -7 -6 1031.0 1010.0
12 23.02 ЮЗ 3 20 км 10/0 2000 м
[Ac As]
-1.7 -7.6 64 -6 -6 1030.3 1009.3 -0.9 0.0
15 23.02 ЮЗ 3 20 км 8/8 600 м
[Cb cap]
-2.0 -9.6 56 -6 -6 1029.9 1008.9
18 23.02 ЮЗ 4 20 км 9/3 600 м
[Cb cap Ac As Ci fib]
-1.4 -8.8 57 -7 -7 1029.2 1008.2
21 23.02 ЮЗ 5
{11}
20 км 10/0 2000 м
[Ac As]
-1.6 -5.6 74 -8 -8 1028.4 1007.4
00 24.02 Ю 2 20 км 10/0
[As trans]
-1.6 -5.5 75 -5 -5 1027.3 1006.3 -2.4 12

 

Местоположение метеостанции Сухобузимское (Красноярский край, Россия): широта 56.50 долгота 93.28 высота над уровнем моря 164 м.

В архиве по умолчанию представлена погода в Сухобузимском за последнюю неделю. Архивные данные за месяц целиком и за предыдущие месяцы, начиная с января 2011 года, Вы можете получить, выбрав интересующий диапазон дат из раскрывающегося списка и нажав кнопку "Ввод!".


*Определитесь, кто Вы:
робот инопланетянин человек

Внимание! Время в таблицах - всемирное. Для получения местного времени необходимо прибавить поправку, которая равна 7 ч.

Смотрите также архив погоды в соседних городах и на ближайших метеорологических станциях:

Погода в Погорельском Бору (Красноярский край, Россия) (25 км)
Погода в Железногорске (Красноярский край, Россия) (31 км)
Погода в Большой Мурте (Красноярский край, Россия) (45 км)
Погода в Минино (Красноярский край, Россия) (59 км)
Погода в Емельяново (Красноярский край, Россия) (61 км)
Погода в Красноярске (Красноярский край, Россия) (62 км)
Погода в Роевом Ручье (Красноярский край, Россия) (68 км)
Погода в Каче (Красноярский край, Россия) (79 км)
Погода в Шумихе (Красноярский край, Россия) (86 км)
Погода в Шалинском (Красноярский край, Россия) (92 км)

Пояснения к столбцам:

Ветер - указаны скорость ветра в м/с - средняя за 10 мин, порывы в срок и между сроками (в фигурных скобках) и направление, откуда дует ветер: С - северный, СВ - северо-восточный, В - восточный, ЮВ - юго-восточный, Ю - южный, ЮЗ - юго-западный, З - западный, СЗ - северо-западный.
Видимость - горизонтальная дальность видимости в метрах или километрах. При видимости от 1 до 10 км при отсутствии осадков обычно наблюдается дымка, при ухудшении видимости до 1 км и менее - туман. В сухую погоду видимость может ухудшаться дымом, пылью или мглою.
Явления - указаны атмосферные явления, наблюдавшиеся в срок или в последний час перед сроком; фигурными скобками обозначены явления, наблюдавшиеся между сроками (за 1-3 часа до срока); квадратными скобками обозначены град или гололедные отложения с указанием их диаметра в мм.
Облачность - указаны через наклонную черту общая и нижняя облачность в баллах и высота нижней границы облаков в метрах; квадратными скобками обозначены формы облаков: Ci - перистые, Cs - перисто-слоистые, Cc - перисто-кучевые, Ac - высококучевые, As - высокослоистые, Sc - слоисто-кучевые, Ns - слоисто-дождевые, Cu - кучевые, Cb - кучево-дождевые. Подробнее классификацию облаков см. в Атласе облаков (PDF).
T - Температура воздуха - температура, измеренная на высоте 2 м над землей.
Td - Температура точки росы - температура, при понижении до которой содержащийся в воздухе водяной пар достигнет насыщения.
f - Относительная влажность воздуха - влажноcть воздуха, измеренная на высоте 2 м над землей.
Te - Эффективная температура - температура, которую ощущает одетый по сезону человек в тени. Характеристика душности погоды. При расчете учитывается влияние влажности воздуха и скорости ветра на теплоощущения человека.
Tes - Эффективная температура на солнце - температура, которую ощущает человек, с поправкой на солнечный нагрев. Характеристика знойности погоды. Зависит от высоты солнца над горизонтом, облачности и скорости ветра. Ночью, в пасмурную погоду, а также при ветре 12 м/с и более поправка равна нулю.
P - Атмосферное давление - приведенное к уровню моря атмосферное давление.
Po - Атмосферное давление - измеренное на уровне метеостанции атмосферное давление.
Tmin - Минимальная температура - минимум температуры воздуха на высоте 2 м над землей.
Tmax - Максимальная температура - максимум температуры воздуха на высоте 2 м над землей.
R - Количество осадков - Количество выпавших осадков за период времени, мм. При наведении курсора мыши на число - период времени, за который выпало указанное количество осадков.
R24 - Количество осадков - Количество выпавших осадков за 24 часа, мм.
S - Снежный покров - Высота снежного покрова, см. При наведении курсора мыши на число - состояние снежного покрова и степень покрытия местности в баллах.